AirNav   Everest Fuels
 
 1301 users online  

72NC Bethany South Heliport
Littleton, North Carolina, USA

GOING TO LITTLETON?


FAA INFORMATION EFFECTIVE 26 JANUARY 2023

Location

FAA Identifier: 72NC
Lat/Long: 36-30-39.5000N 077-53-29.5000W
36-30.658333N 077-53.491667W
36.5109722,-77.8915278
(estimated)
Elevation: 220 ft. / 67 m (estimated)
From city: 5 miles N of LITTLETON, NC
Time zone: UTC -5 (UTC -4 during Daylight Saving Time)
Zip code: 27842

Heliport Operations

Heliport use: Private use. Permission required prior to landing
Activation date: 09/2003
Control tower: no
ARTCC: WASHINGTON CENTER
FSS: RALEIGH FLIGHT SERVICE STATION
Attendance: UNATNDD
Wind indicator: lighted
Segmented circle: no
Lights: ACTVT PERIMETER LIGHTS 123.025.

Heliport Communications

WX AWOS-3 at AVC (13 nm NW): 127.525 (434-729-2229)
WX AWOS-3 at LVL (16 nm N): 119.625 (434-848-2017)
WX AWOS-3PT at IXA (16 nm SE): 119.975 (252-583-3446)

Nearby radio navigation aids

VOR radial/distance  VOR name  Freq  Var
LVLr186/18.4LAWRENCEVILLE VORTAC112.9008W
TYIr349/33.3TAR RIVER VORTAC117.8005W

 
NDB name  Hdg/Dist  Freq  Var  ID
HUNTSBORO079/37.327109WHXO .... -..- ---
BLACKSTONE178/37.732609WBKT -... -.- -

Heliport Services

Runway Information

Helipad H1

Dimensions: 36 x 26 ft. / 11 x 8 m
Surface: wood
ROOFTOP HELIPAD.
Latitude: 36-30.658333N
Longitude: 077-53.491667W
Elevation: 220.0 ft.
Traffic pattern: leftleft

Heliport Ownership and Management from official FAA records

Ownership: Privately-owned
Owner: KATHLEEN & DALE SCHNEIDER
82 SUMMER PLACE
LITTLETON, NC 27850
Phone 252-586-5443
Manager: DALE SCHNEIDER
5836 FAYETTEVILLE RD, STE 204
DURHAM, NC 27713-6692
Phone 919-730-5000
CELL.

Additional Remarks

FOR CD CTC ATLANTA ARTCC AT 770-210-7692.

Instrument Procedures

There are no published instrument procedures at 72NC.

Some nearby airports with instrument procedures:

KAVC - Mecklenburg-Brunswick Regional Airport (13 nm NW)
KLVL - Brunswick County Airport (16 nm N)
KIXA - Halifax/Northampton Regional Airport (16 nm SE)
KEMV - Emporia-Greensville Regional Airport (22 nm NE)
W31 - Lunenburg County Airport (30 nm NW)
 
Loc | Ops | Rwys | IFR | FBO | Links
Com | Nav | Svcs | Stats | Notes
Area around 72NC (Bethany South Heliport)
 
Road maps at: MapQuest Bing Google
 
Aerial photo
No photo
 
Sectional chart

 
Airport distance calculator
Flying to Bethany South Heliport? Find the distance to fly.

From to 72NC

Sunrise and sunset
Times for 31-Jan-2023
 Local
(UTC-5)
 Zulu
(UTC)
Morning civil twilight06:4811:48
Sunrise07:1512:15
Sunset17:3522:35
Evening civil twilight18:0223:02

Current date and time
Zulu (UTC)  01-Feb-2023 00:01:23
Local (UTC-5)  31-Jan-2023 19:01:23
 
METAR
KAVC 
12nm NW 
312355Z AUTO 03005KT 4SM OVC004 08/08 A3020 RMK AO2 P0002 60010 T00810080 10127 20081
KLVL 
16nm N 
312355Z AUTO 01004KT 4SM OVC003 08/07 A3016 RMK AO1 60008 T00780073 10132 20078
KIXA 
16nm SE 
312355Z AUTO 00000KT 3SM BR OVC002 11/11 A3013 RMK AO2
TAF
KRWI 
40nm S 
312122Z 3121/0118 20005KT 2SM -RA OVC006 FM312300 21004KT 3SM -RA BR OVC004 FM010000 VRB03KT 5SM BR OVC004 FM010600 01005KT 3SM -RA BR OVC003 FM011500 02008KT 3SM -RA BR OVC007
NOTAMs
Click for the latest NOTAMs
NOTAMs are issued by the DoD/FAA and will open in a separate window not controlled by AirNav.

 

 
 

Would you like to see your business listed on this page?

 If your business provides an interesting product or service to pilots, flight crews, aircraft, or users of the Bethany South Heliport, you should consider listing it here.  To start the listing process, click on the button below
 
Add a business
 

Other Pages about Bethany South Heliport

Update a link
 
Copyright © AirNav, LLC. All rights reserved. Privacy Policy  Contact